CW5439 Weather Reports


time (UTC)temp
C
wind
direction
speed
KPH
gust
KPH
rain 1hr
cm
rain 24hr
cm
rain mn
cm
humidity
%
barometer
mb
20260506073205 6 111 3.2 11.3 0.00 0.00 0.00 75 1016.0
20260506072705 6 41 3.2 11.3 0.00 0.00 0.00 76 1016.1
20260506072206 6 86 3.2 11.3 0.00 0.00 0.00 77 1016.0
20260506071706 5 42 3.2 6.4 0.00 0.00 0.00 79 1016.0
20260506071205 5 44 3.2 6.4 0.00 0.00 0.00 80 1016.0
20260506070705 5 47 3.2 6.4 0.00 0.00 0.00 80 1016.0
20260506070205 5 57 3.2 4.8 0.00 0.00 0.00 81 1016.0
20260506062206 3 70 0.0 0.0 0.00 0.00 0.00 84 1015.9
20260506061706 3 70 0.0 0.0 0.00 0.00 0.00 84 1016.0
20260506061205 3 70 0.0 0.0 0.00 0.00 0.00 85 1016.0
20260506060703 3 70 0.0 3.2 0.00 0.00 0.00 85 1016.0
20260506060229 3 70 0.0 3.2 0.00 0.00 0.00 85 1015.9
20260506051205 2 70 0.0 1.6 0.00 0.00 0.00 83 1016.0
20260506050705 2 70 0.0 1.6 0.00 0.00 0.00 83 1016.1
20260506050205 2 70 0.0 1.6 0.00 0.00 0.00 83 1016.1
20260506044705 2 70 0.0 3.2 0.00 0.00 0.00 83 1016.0
20260506043705 2 70 1.6 3.2 0.00 0.00 0.00 82 1016.0
20260506043205 2 70 1.6 3.2 0.00 0.00 0.00 82 1016.0
20260506042713 2 70 0.0 1.6 0.00 0.00 0.00 82 1016.0
20260506042206 2 70 0.0 1.6 0.00 0.00 0.00 81 1015.9
20260506041705 2 70 0.0 3.2 0.00 0.00 0.00 81 1016.0
20260506041210 2 70 1.6 3.2 0.00 0.00 0.00 81 1015.9
20260506040705 2 70 1.6 3.2 0.00 0.00 0.00 80 1016.0
20260506040205 2 70 0.0 1.6 0.00 0.00 0.00 80 1015.9
20260506035705 2 70 0.0 3.2 0.00 0.00 0.00 79 1016.0
20260506035206 2 70 0.0 3.2 0.00 0.00 0.00 79 1016.0
20260506034705 2 70 1.6 3.2 0.00 0.00 0.00 79 1015.9
20260506034205 2 70 1.6 3.2 0.00 0.00 0.00 79 1016.0
20260506033705 2 70 1.6 3.2 0.00 0.00 0.00 79 1016.0
20260506032705 2 70 1.6 4.8 0.00 0.00 0.00 78 1016.1
20260506031705 2 77 1.6 4.8 0.00 0.00 0.00 78 1016.1
20260506031205 3 77 3.2 4.8 0.00 0.00 0.00 78 1016.1
20260506030205 3 78 1.6 6.4 0.00 0.00 0.00 77 1016.2
20260506025704 3 78 1.6 6.4 0.00 0.00 0.00 77 1016.2
20260506025221 3 78 3.2 6.4 0.00 0.00 0.00 77 1016.1
20260506024706 3 76 3.2 6.4 0.00 0.00 0.00 77 1016.1
20260506024205 3 77 1.6 3.2 0.00 0.00 0.00 77 1016.1
20260506023205 3 77 1.6 4.8 0.00 0.00 0.00 76 1016.2
20260506022706 3 77 1.6 6.4 0.00 0.00 0.00 76 1016.2
20260506022205 3 76 3.2 6.4 0.00 0.00 0.00 76 1016.2
20260506021208 3 71 3.2 6.4 0.00 0.00 0.00 75 1016.1
20260506020705 3 71 3.2 6.4 0.00 0.00 0.00 76 1016.2
20260506020206 3 57 3.2 6.4 0.00 0.00 0.00 75 1016.3
20260506015705 3 67 3.2 6.4 0.00 0.00 0.00 75 1016.3
20260506015206 3 69 3.2 6.4 0.00 0.00 0.00 75 1016.3
20260506014205 3 64 3.2 6.4 0.00 0.00 0.00 75 1016.4
20260506013204 3 66 4.8 8.0 0.00 0.00 0.00 75 1016.4
20260506012705 3 68 4.8 8.0 0.00 0.00 0.00 75 1016.4
20260506012206 3 58 4.8 8.0 0.00 0.00 0.00 76 1016.4
20260506011705 3 76 4.8 8.0 0.00 0.00 0.00 76 1016.4
20260506011205 3 83 4.8 6.4 0.00 0.00 0.00 77 1016.5
20260506010705 3 70 4.8 6.4 0.00 0.00 0.00 77 1016.5
20260506010227 3 71 3.2 6.4 0.00 0.00 0.00 78 1016.5
20260506005205 3 44 1.6 4.8 0.00 0.00 0.00 79 1016.7
20260506004205 3 51 3.2 4.8 0.00 0.00 0.00 78 1016.7
20260506003707 3 36 3.2 4.8 0.00 0.00 0.00 78 1016.7
20260506003205 3 42 1.6 4.8 0.00 0.00 0.00 78 1016.7
20260506002705 3 50 3.2 4.8 0.00 0.00 0.00 78 1016.7
20260506002206 3 55 3.2 6.4 0.00 0.00 0.00 78 1016.7
20260506001705 3 51 3.2 6.4 0.00 0.00 0.00 78 1016.6
20260506001205 3 56 3.2 6.4 0.00 0.00 0.00 78 1016.6
20260506000705 3 41 3.2 4.8 0.00 0.00 0.00 78 1016.6
20260506000205 3 54 3.2 4.8 0.00 0.00 0.00 78 1016.6
20260505235705 3 51 3.2 6.4 0.00 0.00 0.00 78 1016.6
20260505235206 3 47 3.2 6.4 0.00 0.00 0.00 78 1016.7
20260505234231 3 38 3.2 6.4 0.00 0.00 0.00 77 1016.7
20260505233708 3 57 3.2 4.8 0.00 0.00 0.00 77 1016.7
20260505233205 3 57 3.2 6.4 0.00 0.00 0.00 77 1016.7
20260505232706 4 42 3.2 6.4 0.00 0.00 0.00 77 1016.8
20260505232205 4 73 3.2 4.8 0.00 0.00 0.00 76 1016.7
20260505231725 4 61 3.2 4.8 0.00 0.00 0.00 76 1016.7
20260505231205 4 47 3.2 4.8 0.00 0.00 0.00 76 1016.8
20260505230205 4 55 3.2 6.4 0.00 0.00 0.00 76 1016.8
20260505225705 4 54 3.2 6.4 0.00 0.00 0.00 76 1016.8
20260505225205 5 49 3.2 6.4 0.00 0.00 0.00 75 1016.8
20260505224731 5 57 1.6 6.4 0.00 0.00 0.00 75 1016.8
20260505224205 5 57 1.6 6.4 0.00 0.00 0.00 75 1016.8
20260505223206 5 69 3.2 6.4 0.00 0.00 0.00 75 1016.8
20260505222705 5 59 3.2 9.7 0.00 0.00 0.00 75 1016.8
20260505222206 5 47 3.2 9.7 0.00 0.00 0.00 75 1016.8
20260505221705 5 52 4.8 9.7 0.00 0.00 0.00 75 1016.8
20260505221204 5 82 4.8 6.4 0.00 0.00 0.00 75 1016.8
20260505220705 5 67 4.8 6.4 0.00 0.00 0.00 75 1016.9
20260505220205 5 57 3.2 6.4 0.00 0.00 0.00 75 1016.9
20260505215205 5 60 3.2 8.0 0.00 0.00 0.00 74 1017.0
20260505214705 5 65 3.2 8.0 0.00 0.00 0.00 74 1016.9
20260505214205 5 61 3.2 8.0 0.00 0.00 0.00 74 1016.9
20260505213205 5 49 4.8 11.3 0.00 0.00 0.00 74 1016.9
20260505212705 5 71 4.8 11.3 0.00 0.00 0.00 73 1016.8
20260505212206 5 57 4.8 8.0 0.00 0.00 0.00 73 1016.8
20260505211205 5 51 4.8 9.7 0.00 0.00 0.00 72 1016.9
20260505210206 5 60 4.8 9.7 0.00 0.00 0.00 72 1016.8
20260505205705 5 65 4.8 9.7 0.00 0.00 0.00 72 1016.8
20260505205211 5 42 4.8 9.7 0.00 0.00 0.00 72 1016.8
20260505204707 5 52 6.4 9.7 0.00 0.00 0.00 72 1016.8
20260505204205 6 69 4.8 8.0 0.00 0.00 0.00 71 1016.8
20260505203705 6 53 4.8 11.3 0.00 0.00 0.00 71 1016.8
20260505202705 6 66 6.4 14.5 0.00 0.00 0.00 71 1016.8
20260505202206 6 65 6.4 14.5 0.00 0.00 0.00 70 1016.8
20260505201206 6 63 6.4 14.5 0.00 0.00 0.00 71 1016.8
20260505200705 6 83 8.0 14.5 0.00 0.00 0.00 71 1016.8
20260505195705 6 69 8.0 16.1 0.00 0.00 0.00 72 1016.7
20260505194705 6 73 8.0 16.1 0.00 0.00 0.00 71 1016.7
20260505194206 6 55 8.0 16.1 0.00 0.00 0.00 71 1016.7
20260505193704 6 92 8.0 19.3 0.00 0.00 0.00 71 1016.6
20260505192705 6 61 9.7 20.9 0.00 0.00 0.00 71 1016.6
20260505191704 6 107 9.7 19.3 0.00 0.00 0.00 70 1016.5
20260505191205 6 96 9.7 22.5 0.00 0.00 0.00 70 1016.5
20260505190705 6 105 9.7 22.5 0.00 0.00 0.00 70 1016.5
20260505190205 6 86 11.3 22.5 0.00 0.00 0.00 70 1016.4
20260505185206 6 82 9.7 19.3 0.00 0.00 0.00 70 1016.4
20260505184705 6 70 11.3 22.5 0.00 0.00 0.00 70 1016.4
20260505184205 6 105 12.9 22.5 0.00 0.00 0.00 71 1016.4
20260505183711 6 105 14.5 25.7 0.00 0.00 0.00 71 1016.4
20260505183205 6 78 12.9 25.7 0.00 0.00 0.00 70 1016.4
20260505182705 6 96 14.5 25.7 0.00 0.00 0.00 70 1016.4
20260505182205 6 101 12.9 24.1 0.00 0.00 0.00 69 1016.3
20260505181732 7 51 11.3 24.1 0.00 0.00 0.00 70 1016.4
20260505181229 7 55 11.3 24.1 0.00 0.00 0.00 71 1016.4
20260505180705 7 80 14.5 25.7 0.00 0.00 0.00 70 1016.4
20260505180205 7 113 16.1 25.7 0.00 0.00 0.00 70 1016.4
20260505175705 7 84 16.1 25.7 0.00 0.00 0.00 69 1016.4
20260505175205 7 51 16.1 24.1 0.00 0.00 0.00 70 1016.4
20260505174705 7 112 14.5 24.1 0.00 0.00 0.00 69 1016.3
20260505174205 7 74 12.9 24.1 0.00 0.00 0.00 69 1016.4
20260505173705 7 114 12.9 22.5 0.00 0.00 0.00 68 1016.4
20260505173205 7 96 14.5 20.9 0.00 0.00 0.00 68 1016.3
20260505172705 7 46 14.5 22.5 0.00 0.00 0.00 69 1016.3
20260505172206 7 75 12.9 25.7 0.00 0.00 0.00 69 1016.2
20260505171705 7 70 12.9 29.0 0.00 0.00 0.00 69 1016.3
20260505171205 7 73 16.1 29.0 0.00 0.00 0.00 69 1016.3
20260505170704 7 118 16.1 25.7 0.00 0.00 0.00 69 1016.3
20260505170205 7 94 16.1 25.7 0.00 0.00 0.00 69 1016.3
20260505165705 7 80 14.5 25.7 0.00 0.00 0.00 69 1016.3
20260505165205 7 95 12.9 22.5 0.00 0.00 0.00 69 1016.2
20260505164705 7 96 14.5 25.7 0.00 0.00 0.00 68 1016.2
20260505164205 7 86 14.5 27.4 0.00 0.00 0.00 69 1016.1
20260505163705 7 92 14.5 27.4 0.00 0.00 0.00 69 1016.1
20260505163205 7 107 14.5 27.4 0.00 0.00 0.00 70 1016.1
20260505162705 7 98 12.9 25.7 0.00 0.00 0.00 70 1016.1
20260505162206 7 93 14.5 24.1 0.00 0.00 0.00 71 1016.1
20260505161706 7 83 14.5 25.7 0.00 0.00 0.00 71 1016.1
20260505161205 7 86 14.5 27.4 0.00 0.00 0.00 72 1016.2
20260505160705 7 81 14.5 29.0 0.00 0.00 0.00 73 1016.2
20260505160205 7 81 14.5 29.0 0.00 0.00 0.00 73 1016.2
20260505153205 7 59 16.1 25.7 0.00 0.00 0.00 75 1016.1
20260505152206 7 103 14.5 25.7 0.00 0.00 0.00 74 1016.1
20260505151705 7 98 16.1 25.7 0.00 0.00 0.00 75 1016.1
20260505151205 7 87 16.1 25.7 0.00 0.00 0.00 74 1016.2
20260505150704 7 132 14.5 24.1 0.00 0.00 0.00 75 1016.2
20260505150206 7 74 12.9 24.1 0.00 0.00 0.00 75 1016.1
20260505140205 9 69 17.7 24.1 0.00 0.00 0.00 73 1015.7
20260505130205 9 75 12.9 25.7 0.00 0.00 0.00 73 1015.5
20260505124206 8 34 11.3 20.9 0.00 0.00 0.00 74 1015.4
20260505123205 8 41 12.9 20.9 0.00 0.00 0.00 75 1015.4
20260505122705 8 53 11.3 24.1 0.00 0.00 0.00 76 1015.5
20260505122206 8 355 12.9 29.0 0.00 0.00 0.00 76 1015.5
20260505121705 8 61 16.1 29.0 0.00 0.00 0.00 76 1015.5
20260505121205 8 55 14.5 25.7 0.00 0.00 0.00 76 1015.4
20260505120732 8 64 12.9 25.7 0.00 0.00 0.00 76 1015.4
20260505120205 8 57 12.9 22.5 0.00 0.00 0.00 76 1015.3
20260505115205 8 88 12.9 25.7 0.00 0.00 0.00 77 1015.3
20260505114705 8 74 12.9 25.7 0.00 0.00 0.00 77 1015.3
20260505114206 8 55 14.5 25.7 0.00 0.00 0.00 77 1015.3
20260505113205 8 103 14.5 30.6 0.00 0.00 0.00 76 1015.1
20260505112705 8 94 16.1 30.6 0.00 0.00 0.00 76 1015.1
20260505112206 8 57 14.5 24.1 0.00 0.00 0.00 75 1015.0
20260505111205 8 103 14.5 24.1 0.00 0.00 0.00 74 1014.9
20260505110705 9 55 14.5 24.1 0.00 0.00 0.00 74 1014.9
20260505110205 9 73 14.5 25.7 0.00 0.00 0.00 72 1014.9
20260505102206 11 51 6.4 19.3 0.00 0.00 0.00 58 1014.4
20260505100705 12 74 9.7 17.7 0.00 0.00 0.00 53 1014.4
20260505100205 11 82 8.0 16.1 0.00 0.00 0.00 62 1014.3
20260505095705 10 80 9.7 16.1 0.00 0.00 0.00 60 1014.4
20260505095211 10 38 9.7 17.7 0.00 0.00 0.00 63 1014.4
20260505094705 10 46 9.7 17.7 0.00 0.00 0.00 62 1014.4
20260505094205 10 46 8.0 19.3 0.00 0.00 0.00 61 1014.3
20260505093705 10 15 8.0 19.3 0.00 0.00 0.00 63 1014.4
20260505092704 11 355 9.7 17.7 0.00 0.00 0.00 63 1014.3
20260505092205 11 0 8.0 16.1 0.00 0.00 0.00 65 1014.2
20260505091704 10 335 8.0 24.1 0.00 0.00 0.00 63 1014.3
20260505091206 10 328 9.7 24.1 0.00 0.00 0.00 63 1014.3
20260505090705 10 11 11.3 24.1 0.00 0.00 0.00 67 1014.2
20260505085705 10 61 11.3 22.5 0.00 0.00 0.00 66 1014.2
20260505085205 10 10 11.3 20.9 0.00 0.00 0.00 67 1014.3
20260505084205 10 325 11.3 20.9 0.00 0.00 0.00 68 1014.2
20260505083705 10 344 11.3 17.7 0.00 0.00 0.00 68 1014.2
20260505083205 10 323 9.7 20.9 0.00 0.00 0.00 70 1014.1
20260505082206 10 335 12.9 22.5 0.00 0.00 0.00 70 1014.1
20260505081205 10 0 8.0 14.5 0.00 0.00 0.00 72 1014.0
20260505080705 10 309 8.0 22.5 0.00 0.00 0.00 73 1013.9
20260505080205 9 331 9.7 22.5 0.00 0.00 0.00 73 1013.8
20260505075705 9 5 11.3 22.5 0.00 0.00 0.00 73 1013.8
20260505075205 9 30 9.7 20.9 0.00 0.00 0.00 74 1013.8
20260505074705 9 340 9.7 20.9 0.00 0.00 0.00 76 1013.7
20260505074205 9 329 9.7 20.9 0.00 0.00 0.00 78 1013.6
20260505073705 9 346 11.3 20.9 0.00 0.00 0.00 78 1013.5